This is the latest recevied weather packets stored in our database for station/object IW4ENL-7. If no packets are shown the sender has not sent any weather packets the latest 1 day(s).
| Time | Temp. | Humidity | Pressure | Rain* | Wind** | Luminosity | Snow |
|---|---|---|---|---|---|---|---|
| 1777976189 | 14.44° C | 65% | 961 hPa | - | 2.24 m/s, 85° | - | - |
| 1777976006 | 13.89° C | 65% | 961 hPa | - | 2.68 m/s, 99° | - | - |
| 1777975640 | 13.33° C | 65% | 961 hPa | - | 2.68 m/s, 130° | - | - |
| 1777975457 | 13.33° C | 65% | 961 hPa | - | 3.58 m/s, 103° | - | - |
| 1777975274 | 12.78° C | 65% | 961 hPa | - | 3.13 m/s, 112° | - | - |
| 1777975092 | 12.78° C | 64% | 961 hPa | - | 3.58 m/s, 90° | - | - |
| 1777974543 | 12.78° C | 65% | 961 hPa | - | 4.92 m/s, 103° | - | - |
| 1777974360 | 12.78° C | 64% | 961 hPa | - | 4.92 m/s, 94° | - | - |
| 1777974177 | 12.78° C | 64% | 961 hPa | - | 4.02 m/s, 112° | - | - |
| 1777973994 | 12.78° C | 64% | 961 hPa | - | 4.47 m/s, 99° | - | - |
| 1777973811 | 13.33° C | 64% | 961 hPa | - | 3.58 m/s, 83° | - | - |
| 1777973628 | 12.78° C | 64% | 961 hPa | - | 2.68 m/s, 84° | - | - |
| 1777973445 | 12.78° C | 64% | 961 hPa | - | 5.36 m/s, 98° | - | - |
| 1777973262 | 13.33° C | 64% | 961 hPa | - | 4.47 m/s, 121° | - | - |
| 1777973079 | 13.33° C | 63% | 961 hPa | - | 4.47 m/s, 98° | - | - |
| 1777972896 | 13.33° C | 63% | 961 hPa | - | 3.13 m/s, 117° | - | - |
| 1777972713 | 13.89° C | 63% | 961 hPa | - | 4.92 m/s, 94° | - | - |
| 1777972530 | 13.89° C | 63% | 961 hPa | - | 2.68 m/s, 94° | - | - |
| 1777972347 | 13.89° C | 63% | 961 hPa | - | 3.58 m/s, 94° | - | - |
| 1777972165 | 14.44° C | 62% | 961 hPa | - | 4.02 m/s, 88° | - | - |
| 1777971982 | 14.44° C | 62% | 961 hPa | - | 4.47 m/s, 90° | - | - |
| 1777971616 | 13.89° C | 62% | 961 hPa | - | 2.68 m/s, 84° | - | - |
| 1777971433 | 13.89° C | 61% | 961 hPa | - | 4.47 m/s, 98° | - | - |
| 1777971250 | 13.89° C | 62% | 961 hPa | - | 1.79 m/s, 83° | - | - |
| 1777971067 | 13.89° C | 61% | 961 hPa | - | 2.68 m/s, 67° | - | - |
* Rain since midnight (hover to see other rain measurements)
** Current wind speed in m/s (hover to see current wind gust speed)